Time,TemperatureF,DewpointF,PressureIn,WindDirection,WindDirectionDegrees,WindSpeedMPH,WindSpeedGustMPH,Humidity,HourlyPrecipIn,Conditions,Clouds,dailyrainin,SoftwareType,DateUTC
2013-04-14 00:02:00,44.0,36.0,29.75,WSW,245,0.0,-999.0,73,-99.99,,,-99.99,,2013-04-14 05:02:00,
2013-04-14 00:12:00,44.0,36.0,29.75,WSW,245,0.0,-999.0,73,-99.99,,,-99.99,,2013-04-14 05:12:00,
2013-04-14 00:22:00,44.0,36.0,29.75,WSW,245,0.0,-999.0,74,-99.99,,,-99.99,,2013-04-14 05:22:00,
2013-04-14 00:32:00,45.0,37.0,29.76,WSW,245,0.0,-999.0,74,-99.99,,,-99.99,,2013-04-14 05:32:00,
2013-04-14 00:42:00,45.0,37.0,29.76,WSW,245,0.0,-999.0,74,-99.99,,,-99.99,,2013-04-14 05:42:00,
2013-04-14 00:52:00,45.0,38.0,29.76,WSW,245,0.0,-999.0,75,-99.99,,,-99.99,,2013-04-14 05:52:00,
2013-04-14 01:02:00,45.0,37.0,29.76,WSW,245,0.0,-999.0,73,-99.99,,,-99.99,,2013-04-14 06:02:00,
2013-04-14 01:12:00,45.0,37.0,29.76,WSW,245,0.0,-999.0,73,-99.99,,,-99.99,,2013-04-14 06:12:00,
2013-04-14 01:22:00,45.0,37.0,29.76,WSW,245,0.0,-999.0,73,-99.99,,,-99.99,,2013-04-14 06:22:00,
2013-04-14 01:32:00,45.0,37.0,29.76,WSW,245,0.0,-999.0,74,-99.99,,,-99.99,,2013-04-14 06:32:00,
2013-04-14 01:42:00,45.0,37.0,29.76,WSW,245,0.0,-999.0,74,-99.99,,,-99.99,,2013-04-14 06:42:00,
2013-04-14 01:52:00,45.0,37.0,29.76,WSW,245,0.0,-999.0,73,-99.99,,,-99.99,,2013-04-14 06:52:00,
2013-04-14 02:02:00,45.0,37.0,29.75,WSW,245,0.0,-999.0,72,-99.99,,,-99.99,,2013-04-14 07:02:00,
2013-04-14 02:12:00,45.0,37.0,29.75,WSW,245,0.0,-999.0,72,-99.99,,,-99.99,,2013-04-14 07:12:00,
2013-04-14 02:22:00,45.0,37.0,29.75,WSW,238,0.0,-999.0,73,-99.99,,,-99.99,,2013-04-14 07:22:00,
2013-04-14 02:32:00,45.0,37.0,29.75,SSW,207,0.0,-999.0,73,-99.99,,,-99.99,,2013-04-14 07:32:00,
2013-04-14 02:42:00,45.0,37.0,29.75,SSW,207,0.0,-999.0,73,-99.99,,,-99.99,,2013-04-14 07:42:00,
2013-04-14 02:52:00,45.0,37.0,29.74,SW,229,0.0,-999.0,73,-99.99,,,-99.99,,2013-04-14 07:52:00,
2013-04-14 03:02:00,45.0,37.0,29.74,SW,229,0.0,-999.0,74,-99.99,,,-99.99,,2013-04-14 08:02:00,
2013-04-14 03:12:00,45.0,37.0,29.74,SW,229,0.0,-999.0,74,-99.99,,,-99.99,,2013-04-14 08:12:00,
2013-04-14 03:22:00,45.0,38.0,29.73,SSE,155,0.0,-999.0,77,-99.99,,,-99.99,,2013-04-14 08:22:00,
2013-04-14 03:32:00,45.0,39.0,29.73,South,180,0.0,-999.0,78,-99.99,,,-99.99,,2013-04-14 08:32:00,
2013-04-14 03:42:00,45.0,39.0,29.73,South,180,0.0,-999.0,78,-99.99,,,-99.99,,2013-04-14 08:42:00,
2013-04-14 03:52:00,45.0,38.0,29.73,SW,217,0.0,-999.0,77,-99.99,,,-99.99,,2013-04-14 08:52:00,
2013-04-14 04:02:00,45.0,38.0,29.72,North,5,0.0,-999.0,77,-99.99,,,-99.99,,2013-04-14 09:02:00,
2013-04-14 04:12:00,45.0,38.0,29.72,North,5,0.0,-999.0,77,-99.99,,,-99.99,,2013-04-14 09:12:00,
2013-04-14 04:22:00,45.0,38.0,29.71,West,272,0.0,-999.0,76,-99.99,,,-99.99,,2013-04-14 09:22:00,
2013-04-14 04:32:00,46.0,39.0,29.71,NNW,327,0.0,-999.0,77,-99.99,,,-99.99,,2013-04-14 09:32:00,
2013-04-14 04:42:00,46.0,39.0,29.71,NNW,327,0.0,-999.0,77,-99.99,,,-99.99,,2013-04-14 09:42:00,
2013-04-14 04:53:00,45.0,38.0,29.71,North,355,0.0,-999.0,77,-99.99,,,-99.99,,2013-04-14 09:53:00,
2013-04-14 05:03:00,45.0,39.0,29.70,WSW,242,0.0,-999.0,78,-99.99,,,-99.99,,2013-04-14 10:03:00,
2013-04-14 05:12:00,45.0,39.0,29.70,WSW,242,0.0,-999.0,78,-99.99,,,-99.99,,2013-04-14 10:12:00,
2013-04-14 05:23:00,45.0,39.0,29.70,NNW,334,0.0,-999.0,79,-99.99,,,-99.99,,2013-04-14 10:23:00,
2013-04-14 05:32:00,45.0,39.0,29.68,SW,225,0.0,-999.0,80,-99.99,,,-99.99,,2013-04-14 10:32:00,
2013-04-14 05:42:00,45.0,39.0,29.68,SW,225,0.0,-999.0,80,-99.99,,,-99.99,,2013-04-14 10:42:00,
2013-04-14 05:52:00,45.0,39.0,29.68,SW,215,0.0,-999.0,80,-99.99,,,-99.99,,2013-04-14 10:52:00,
2013-04-14 06:02:00,45.0,40.0,29.68,East,95,0.0,-999.0,81,-99.99,,,-99.99,,2013-04-14 11:02:00,
2013-04-14 06:12:00,45.0,40.0,29.68,East,95,0.0,-999.0,81,-99.99,,,-99.99,,2013-04-14 11:12:00,
2013-04-14 06:22:00,45.0,40.0,29.67,NE,44,0.0,-999.0,82,-99.99,,,-99.99,,2013-04-14 11:22:00,
2013-04-14 06:32:00,45.0,40.0,29.67,NW,317,0.0,-999.0,83,-99.99,,,-99.99,,2013-04-14 11:32:00,
2013-04-14 06:42:00,45.0,40.0,29.67,NW,317,0.0,-999.0,83,-99.99,,,-99.99,,2013-04-14 11:42:00,
2013-04-14 06:52:00,45.0,40.0,29.65,West,274,0.0,-999.0,83,-99.99,,,-99.99,,2013-04-14 11:52:00,
2013-04-14 07:02:00,45.0,40.0,29.65,West,267,0.0,-999.0,84,-99.99,,,-99.99,,2013-04-14 12:02:00,
2013-04-14 07:12:00,45.0,40.0,29.65,West,267,0.0,-999.0,84,-99.99,,,-99.99,,2013-04-14 12:12:00,
2013-04-14 07:21:00,44.0,39.0,29.65,SSW,211,0.0,-999.0,84,-99.99,,,-99.99,,2013-04-14 12:21:00,
2013-04-14 07:32:00,45.0,40.0,29.65,South,176,0.0,-999.0,84,-99.99,,,-99.99,,2013-04-14 12:32:00,
2013-04-14 07:42:00,45.0,40.0,29.65,South,176,0.0,-999.0,84,-99.99,,,-99.99,,2013-04-14 12:42:00,
2013-04-14 07:52:00,46.0,41.0,29.65,West,263,0.0,-999.0,82,-99.99,,,-99.99,,2013-04-14 12:52:00,
2013-04-14 08:02:00,46.0,41.0,29.67,WSW,244,0.0,-999.0,82,-99.99,,,-99.99,,2013-04-14 13:02:00,
2013-04-14 08:12:00,46.0,41.0,29.67,WSW,244,0.0,-999.0,82,-99.99,,,-99.99,,2013-04-14 13:12:00,
2013-04-14 08:22:00,47.0,41.0,29.67,West,265,1.0,-999.0,79,-99.99,,,-99.99,,2013-04-14 13:22:00,
2013-04-14 08:32:00,49.0,42.0,29.67,WSW,238,1.0,-999.0,76,-99.99,,,-99.99,,2013-04-14 13:32:00,
2013-04-14 08:42:00,49.0,42.0,29.67,WSW,238,1.0,-999.0,76,-99.99,,,-99.99,,2013-04-14 13:42:00,
2013-04-14 08:52:00,49.0,42.0,29.66,ESE,123,0.0,-999.0,76,-99.99,,,-99.99,,2013-04-14 13:52:00,
2013-04-14 09:02:00,49.0,42.0,29.66,SW,230,1.0,-999.0,76,-99.99,,,-99.99,,2013-04-14 14:02:00,
2013-04-14 09:12:00,49.0,42.0,29.66,SW,230,1.0,-999.0,76,-99.99,,,-99.99,,2013-04-14 14:12:00,
2013-04-14 09:22:00,50.0,43.0,29.65,East,84,0.0,-999.0,76,-99.99,,,-99.99,,2013-04-14 14:22:00,
2013-04-14 09:32:00,51.0,43.0,29.65,ENE,70,0.0,-999.0,75,-99.99,,,-99.99,,2013-04-14 14:32:00,
2013-04-14 09:42:00,51.0,43.0,29.65,ENE,70,0.0,-999.0,75,-99.99,,,-99.99,,2013-04-14 14:42:00,
2013-04-14 09:52:00,52.0,43.0,29.64,North,350,0.0,-999.0,72,-99.99,,,-99.99,,2013-04-14 14:52:00,
2013-04-14 10:02:00,53.0,43.0,29.64,NW,310,0.0,-999.0,70,-99.99,,,-99.99,,2013-04-14 15:02:00,
2013-04-14 10:12:00,53.0,43.0,29.64,NW,310,0.0,-999.0,70,-99.99,,,-99.99,,2013-04-14 15:12:00,
2013-04-14 10:22:00,55.0,45.0,29.63,WNW,302,0.0,-999.0,68,-99.99,,,-99.99,,2013-04-14 15:22:00,
2013-04-14 10:33:00,56.0,45.0,29.62,West,262,0.0,-999.0,66,-99.99,,,-99.99,,2013-04-14 15:33:00,
2013-04-14 10:43:00,56.0,45.0,29.62,West,262,0.0,-999.0,66,-99.99,,,-99.99,,2013-04-14 15:43:00,
2013-04-14 10:53:00,60.0,48.0,29.62,WSW,248,0.0,-999.0,64,-99.99,,,-99.99,,2013-04-14 15:53:00,
2013-04-14 11:04:00,62.0,49.0,29.61,WSW,246,2.0,-999.0,62,-99.99,,,-99.99,,2013-04-14 16:04:00,
2013-04-14 11:13:00,62.0,49.0,29.61,WSW,246,2.0,-999.0,62,-99.99,,,-99.99,,2013-04-14 16:13:00,
2013-04-14 11:22:00,64.0,48.0,29.60,SSW,201,4.0,-999.0,56,-99.99,,,-99.99,,2013-04-14 16:22:00,
2013-04-14 11:32:00,65.0,49.0,29.60,WSW,249,2.0,-999.0,56,-99.99,,,-99.99,,2013-04-14 16:32:00,
2013-04-14 11:43:00,65.0,49.0,29.60,WSW,249,2.0,-999.0,56,-99.99,,,-99.99,,2013-04-14 16:43:00,
2013-04-14 11:52:00,66.0,50.0,29.60,SSW,193,2.0,-999.0,56,-99.99,,,-99.99,,2013-04-14 16:52:00,
2013-04-14 12:02:00,67.0,50.0,29.59,WSW,238,3.0,-999.0,54,-99.99,,,-99.99,,2013-04-14 17:02:00,
2013-04-14 12:12:00,67.0,50.0,29.59,WSW,238,3.0,-999.0,54,-99.99,,,-99.99,,2013-04-14 17:12:00,
2013-04-14 12:22:00,68.0,50.0,29.57,West,279,3.0,-999.0,53,-99.99,,,-99.99,,2013-04-14 17:22:00,
2013-04-14 12:32:00,69.0,51.0,29.57,West,272,2.0,-999.0,53,-99.99,,,-99.99,,2013-04-14 17:32:00,
2013-04-14 12:42:00,69.0,51.0,29.57,West,272,2.0,-999.0,53,-99.99,,,-99.99,,2013-04-14 17:42:00,
2013-04-14 12:52:00,70.0,52.0,29.56,East,99,3.0,-999.0,52,-99.99,,,-99.99,,2013-04-14 17:52:00,
2013-04-14 13:02:00,71.0,52.0,29.55,WSW,249,3.0,-999.0,51,-99.99,,,-99.99,,2013-04-14 18:02:00,
2013-04-14 13:12:00,71.0,52.0,29.55,WSW,249,3.0,-999.0,51,-99.99,,,-99.99,,2013-04-14 18:12:00,
2013-04-14 13:22:00,72.0,52.0,29.54,SW,232,3.0,-999.0,49,-99.99,,,-99.99,,2013-04-14 18:22:00,
2013-04-14 13:32:00,74.0,52.0,29.54,West,274,1.0,-999.0,46,-99.99,,,-99.99,,2013-04-14 18:32:00,
2013-04-14 13:42:00,74.0,52.0,29.54,West,274,1.0,-999.0,46,-99.99,,,-99.99,,2013-04-14 18:42:00,
2013-04-14 13:52:00,74.0,51.0,29.53,SSW,205,3.0,-999.0,45,-99.99,,,-99.99,,2013-04-14 18:52:00,
2013-04-14 14:03:00,74.0,51.0,29.53,East,96,4.0,-999.0,45,-99.99,,,-99.99,,2013-04-14 19:03:00,
2013-04-14 14:12:00,74.0,51.0,29.53,East,96,4.0,-999.0,45,-99.99,,,-99.99,,2013-04-14 19:12:00,
2013-04-14 14:22:00,74.0,52.0,29.52,SE,132,2.0,-999.0,46,-99.99,,,-99.99,,2013-04-14 19:22:00,
2013-04-14 14:32:00,75.0,52.0,29.51,WNW,293,4.0,-999.0,45,-99.99,,,-99.99,,2013-04-14 19:32:00,
2013-04-14 14:42:00,75.0,52.0,29.51,WNW,293,4.0,-999.0,45,-99.99,,,-99.99,,2013-04-14 19:42:00,
2013-04-14 14:52:00,76.0,52.0,29.50,SSW,213,4.0,-999.0,43,-99.99,,,-99.99,,2013-04-14 19:52:00,
2013-04-14 15:02:00,76.0,51.0,29.49,SW,221,3.0,-999.0,42,-99.99,,,-99.99,,2013-04-14 20:02:00,
2013-04-14 15:12:00,76.0,51.0,29.49,SW,221,3.0,-999.0,42,-99.99,,,-99.99,,2013-04-14 20:12:00,
2013-04-14 15:22:00,76.0,50.0,29.48,West,259,3.0,-999.0,40,-99.99,,,-99.99,,2013-04-14 20:22:00,
2013-04-14 15:33:00,77.0,52.0,29.47,ESE,113,2.0,-999.0,42,-99.99,,,-99.99,,2013-04-14 20:33:00,
2013-04-14 15:42:00,77.0,52.0,29.47,ESE,113,2.0,-999.0,42,-99.99,,,-99.99,,2013-04-14 20:42:00,
2013-04-14 15:52:00,77.0,49.0,29.47,WSW,255,2.0,-999.0,38,-99.99,,,-99.99,,2013-04-14 20:52:00,
2013-04-14 16:02:00,78.0,50.0,29.47,SW,219,3.0,-999.0,38,-99.99,,,-99.99,,2013-04-14 21:02:00,
2013-04-14 16:12:00,78.0,50.0,29.47,SW,219,3.0,-999.0,38,-99.99,,,-99.99,,2013-04-14 21:12:00,
2013-04-14 16:22:00,77.0,48.0,29.46,SW,235,3.0,-999.0,36,-99.99,,,-99.99,,2013-04-14 21:22:00,
2013-04-14 16:33:00,76.0,50.0,29.45,SSE,152,4.0,-999.0,40,-99.99,,,-99.99,,2013-04-14 21:33:00,
2013-04-14 16:43:00,76.0,50.0,29.45,SSE,152,4.0,-999.0,40,-99.99,,,-99.99,,2013-04-14 21:43:00,
2013-04-14 16:53:00,76.0,50.0,29.44,WNW,288,2.0,-999.0,40,-99.99,,,-99.99,,2013-04-14 21:53:00,
2013-04-14 17:03:00,76.0,49.0,29.44,SSW,205,2.0,-999.0,38,-99.99,,,-99.99,,2013-04-14 22:03:00,
2013-04-14 17:12:00,76.0,49.0,29.44,SSW,205,2.0,-999.0,38,-99.99,,,-99.99,,2013-04-14 22:12:00,
2013-04-14 17:23:00,76.0,49.0,29.44,ESE,119,3.0,-999.0,38,-99.99,,,-99.99,,2013-04-14 22:23:00,
2013-04-14 17:32:00,76.0,49.0,29.44,West,273,3.0,-999.0,38,-99.99,,,-99.99,,2013-04-14 22:32:00,
2013-04-14 17:43:00,76.0,49.0,29.44,West,273,3.0,-999.0,38,-99.99,,,-99.99,,2013-04-14 22:43:00,
2013-04-14 17:52:00,76.0,51.0,29.44,WSW,248,3.0,-999.0,41,-99.99,,,-99.99,,2013-04-14 22:52:00,
2013-04-14 18:02:00,75.0,51.0,29.44,West,281,2.0,-999.0,43,-99.99,,,-99.99,,2013-04-14 23:02:00,
2013-04-14 18:12:00,75.0,51.0,29.44,West,281,2.0,-999.0,43,-99.99,,,-99.99,,2013-04-14 23:12:00,
2013-04-14 18:22:00,74.0,49.0,29.44,SSW,202,1.0,-999.0,42,-99.99,,,-99.99,,2013-04-14 23:22:00,
2013-04-14 18:32:00,73.0,50.0,29.43,WSW,256,1.0,-999.0,45,-99.99,,,-99.99,,2013-04-14 23:32:00,
2013-04-14 18:42:00,73.0,50.0,29.43,WSW,256,1.0,-999.0,45,-99.99,,,-99.99,,2013-04-14 23:42:00,
2013-04-14 18:52:00,72.0,50.0,29.44,ENE,59,1.0,-999.0,46,-99.99,,,-99.99,,2013-04-14 23:52:00,
2013-04-14 19:02:00,71.0,50.0,29.44,NW,311,1.0,-999.0,47,-99.99,,,-99.99,,2013-04-15 00:02:00,
2013-04-14 19:12:00,71.0,50.0,29.44,NW,311,1.0,-999.0,47,-99.99,,,-99.99,,2013-04-15 00:12:00,
2013-04-14 19:22:00,70.0,49.0,29.44,SE,142,1.0,-999.0,48,-99.99,,,-99.99,,2013-04-15 00:22:00,
2013-04-14 19:32:00,70.0,50.0,29.43,WSW,242,0.0,-999.0,49,-99.99,,,-99.99,,2013-04-15 00:32:00,
2013-04-14 19:42:00,69.0,50.0,29.43,WNW,284,1.0,-999.0,51,-99.99,,,-99.99,,2013-04-15 00:42:00,
2013-04-14 19:52:00,69.0,50.0,29.43,WNW,284,1.0,-999.0,51,-99.99,,,-99.99,,2013-04-15 00:52:00,
2013-04-14 20:02:00,68.0,50.0,29.44,WSW,253,1.0,-999.0,52,-99.99,,,-99.99,,2013-04-15 01:02:00,
2013-04-14 20:12:00,68.0,50.0,29.44,WSW,253,1.0,-999.0,52,-99.99,,,-99.99,,2013-04-15 01:12:00,
2013-04-14 20:23:00,67.0,50.0,29.44,WSW,251,1.0,-999.0,54,-99.99,,,-99.99,,2013-04-15 01:23:00,
2013-04-14 20:32:00,67.0,50.0,29.44,SW,217,1.0,-999.0,54,-99.99,,,-99.99,,2013-04-15 01:32:00,
2013-04-14 20:42:00,67.0,50.0,29.44,SW,217,1.0,-999.0,54,-99.99,,,-99.99,,2013-04-15 01:42:00,
2013-04-14 20:52:00,67.0,50.0,29.44,WSW,244,1.0,-999.0,54,-99.99,,,-99.99,,2013-04-15 01:52:00,
2013-04-14 21:02:00,66.0,49.0,29.46,ESE,102,2.0,-999.0,54,-99.99,,,-99.99,,2013-04-15 02:02:00,
2013-04-14 21:12:00,66.0,49.0,29.46,ESE,102,2.0,-999.0,54,-99.99,,,-99.99,,2013-04-15 02:12:00,
2013-04-14 21:22:00,66.0,50.0,29.46,WSW,246,2.0,-999.0,56,-99.99,,,-99.99,,2013-04-15 02:22:00,
2013-04-14 21:32:00,66.0,50.0,29.46,WSW,251,2.0,-999.0,57,-99.99,,,-99.99,,2013-04-15 02:32:00,
2013-04-14 21:42:00,66.0,50.0,29.46,WSW,251,2.0,-999.0,57,-99.99,,,-99.99,,2013-04-15 02:42:00,
2013-04-14 21:52:00,65.0,50.0,29.47,ESE,103,2.0,-999.0,59,-99.99,,,-99.99,,2013-04-15 02:52:00,
2013-04-14 22:03:00,64.0,50.0,29.48,SW,223,1.0,-999.0,61,-99.99,,,-99.99,,2013-04-15 03:03:00,
2013-04-14 22:12:00,64.0,50.0,29.48,SW,223,1.0,-999.0,61,-99.99,,,-99.99,,2013-04-15 03:12:00,
2013-04-14 22:22:00,64.0,51.0,29.48,NW,311,1.0,-999.0,62,-99.99,,,-99.99,,2013-04-15 03:22:00,
2013-04-14 22:32:00,63.0,51.0,29.49,WNW,294,2.0,-999.0,65,-99.99,,,-99.99,,2013-04-15 03:32:00,
2013-04-14 22:43:00,63.0,51.0,29.49,WNW,294,2.0,-999.0,65,-99.99,,,-99.99,,2013-04-15 03:43:00,
2013-04-14 22:54:00,63.0,51.0,29.49,SW,223,1.0,-999.0,66,-99.99,,,-99.99,,2013-04-15 03:54:00,
2013-04-14 23:03:00,63.0,52.0,29.49,West,259,2.0,-999.0,67,-99.99,,,-99.99,,2013-04-15 04:03:00,
2013-04-14 23:13:00,63.0,52.0,29.49,West,259,2.0,-999.0,67,-99.99,,,-99.99,,2013-04-15 04:13:00,
2013-04-14 23:22:00,63.0,52.0,29.49,SSE,163,1.0,-999.0,68,-99.99,,,-99.99,,2013-04-15 04:22:00,
2013-04-14 23:33:00,62.0,52.0,29.47,South,176,1.0,-999.0,70,-99.99,,,-99.99,,2013-04-15 04:33:00,
2013-04-14 23:42:00,62.0,52.0,29.47,South,176,1.0,-999.0,70,-99.99,,,-99.99,,2013-04-15 04:42:00,
2013-04-14 23:53:00,62.0,52.0,29.48,SW,214,2.0,-999.0,70,-99.99,,,-99.99,,2013-04-15 04:53:00,